This is the latest recevied weather packets stored in our database for station/object AA9VI-10. If no packets are shown the sender has not sent any weather packets the latest 10 day(s).
| Time | Temp. | Humidity | Pressure | Rain* | Wind** | Luminosity | Snow |
|---|---|---|---|---|---|---|---|
| 1777397417 | 14.44° C | 65% | 1014 hPa | 0 mm | - | - | - |
| 1777396817 | 13.89° C | 66% | 1014 hPa | 0 mm | - | - | - |
| 1777396217 | 13.89° C | 67% | 1014 hPa | 0 mm | - | - | - |
| 1777395617 | 13.89° C | 66% | 1013.9 hPa | 0 mm | - | - | - |
| 1777395017 | 13.33° C | 69% | 1013.7 hPa | 0 mm | - | - | - |
| 1777394417 | 13.33° C | 68% | 1013.5 hPa | 0 mm | - | - | - |
| 1777393817 | 13.33° C | 66% | 1013.6 hPa | 0 mm | - | - | - |
| 1777393217 | 12.78° C | 68% | 1014 hPa | 0 mm | - | - | - |
| 1777392617 | 12.78° C | 69% | 1013.7 hPa | 0 mm | - | - | - |
| 1777392017 | 12.78° C | 69% | 1013.6 hPa | 0 mm | - | - | - |
| 1777391417 | 12.78° C | 73% | 1013.6 hPa | 0 mm | - | - | - |
| 1777390817 | 12.22° C | 70% | 1013.6 hPa | 0 mm | - | - | - |
| 1777390217 | 11.67° C | 70% | 1013.1 hPa | 0 mm | - | - | - |
| 1777389617 | 11.67° C | 72% | 1013 hPa | 0 mm | - | - | - |
| 1777389017 | 11.67° C | 75% | 1012.9 hPa | 0 mm | - | - | - |
| 1777388417 | 11.11° C | 75% | 1012.7 hPa | 0 mm | - | - | - |
| 1777387817 | 11.11° C | 75% | 1012.6 hPa | 0 mm | - | - | - |
| 1777387216 | 11.11° C | 76% | 1012.5 hPa | 0 mm | - | - | - |
| 1777386617 | 11.11° C | 75% | 1012.5 hPa | 0 mm | - | - | - |
| 1777386017 | 11.11° C | 76% | 1012.3 hPa | 0 mm | - | - | - |
| 1777385417 | 10.56° C | 77% | 1012.1 hPa | 0 mm | - | - | - |
| 1777384817 | 10.56° C | 78% | 1012.2 hPa | 0 mm | - | - | - |
| 1777384217 | 10.56° C | 79% | 1012.2 hPa | 0 mm | - | - | - |
| 1777383617 | 10° C | 79% | 1011.9 hPa | 0 mm | - | - | - |
| 1777383017 | 10° C | 80% | 1011.7 hPa | 0 mm | - | - | - |
* Rain latest hour (hover to see other rain measurements)
** Current wind speed in m/s (hover to see current wind gust speed)